{"data":{"norad_id":60384,"intl_designator":"2024-140F","name":"QIANFAN-6","alt_names":[],"object_type":"PAYLOAD","status":"ACTIVE","operator":null,"country":"PRC","launch_date":"2024-08-06","launch_site_code":"TAISC","launch_vehicle":null,"mission":null,"orbit_class":"UNKNOWN","rcs_meters":null,"size_class":null,"mass_kg":null,"dimensions":null,"purposes":[],"wikipedia_slug":null,"has_3d_model":false,"image_url":null,"decayed_at":null,"tle_current":{"epoch":"2026-09-22T21:07:40.853280Z","epoch_age_seconds":77951,"freshness":"FRESH","line1":"1 60384U 24140F   26265.88033395  .00000028  00000+0  24781-4 0  9997","line2":"2 60384  88.9670 269.5368 0015273  94.5055 265.7841 13.51024190105865","mean_motion":13.5102419,"eccentricity":0.0015273,"inclination_deg":88.967,"raan_deg":269.5368,"arg_perigee_deg":94.5055,"mean_anomaly_deg":265.7841,"bstar":2.4781e-5,"rev_number":10586,"period_min":106.58580435928,"perigee_km":1057.119458771,"apogee_km":1079.8659338414,"semimajor_km":7446.6296963062,"source":"CELESTRAK","updated_at":"2026-09-23T09:00:20.567414Z"}}}